This demonstration page uses our WeatherBlox Daily Observations layout. Learn more.

Left ArrowRight Arrow

39.12711, -84.51439

Hourly Observations for November 23, 2020

Temp ( °F °C ) Dew Point ( °F °C ) Humidity (%) Winds ( mph kmh ) Pressure ( in mb ) Visibility ( mi km ) Precip ( " mm )
12:53 am 00:53 Mostly Cloudy 40 4.4 35 1.7 83 83 W 7 11 30.27 1025 10 16 0.00 0.00
1:28 am 01:28 Mostly Cloudy 39 3.9 34 1.1 82 82 WNW 5 7 30.30 1026 10 16 0.00 0.00
1:53 am 01:53 Cloudy 39 3.9 34 1.1 82 82 Calm 30.28 1025 10 16 0.00 0.00
2:53 am 02:53 Mostly Cloudy 37 2.8 34 1.1 89 89 S 6 9 30.28 1025 10 16 0.00 0.00
3:53 am 03:53 Cloudy 39 3.9 36 2.2 89 89 SSW 6 9 30.29 1026 10 16 0.00 0.00
4:23 am 04:23 Cloudy 39 3.9 36 2.2 89 89 SSW 6 9 30.31 1026 10 16 0.00 0.00
4:34 am 04:34 Mostly Cloudy 38 3.3 35 1.7 89 89 SSW 7 11 30.31 1026 10 16 0.00 0.00
4:53 am 04:53 Mostly Cloudy 38 3.3 36 2.2 93 93 SSW 6 9 30.30 1026 10 16 0.00 0.00
5:39 am 05:39 Mostly Cloudy 38 3.3 35 1.7 89 89 SW 5 7 30.32 1027 10 16 0.00 0.00
5:53 am 05:53 Cloudy 39 3.9 36 2.2 89 89 SSW 6 9 30.31 1026 10 16 0.00 0.00
6:53 am 06:53 Cloudy 40 4.4 36 2.2 86 86 SW 7 11 30.31 1026 10 16 0.00 0.00
7:53 am 07:53 Cloudy 41 5 37 2.8 86 86 SW 8 13 30.32 1027 10 16 0.00 0.00
8:53 am 08:53 Cloudy 42 5.6 37 2.8 82 82 SW 7 11 30.34 1027 10 16 0.00 0.00
9:53 am 09:53 Cloudy 43 6.1 36 2.2 76 76 W 7 11 30.35 1028 10 16 0.00 0.00
10:53 am 10:53 Cloudy 45 7.2 36 2.2 71 71 SW 8 13 30.36 1028 10 16 0.00 0.00
11:53 am 11:53 Cloudy 47 8.3 36 2.2 66 66 W 6 9 30.35 1028 10 16 0.00 0.00
12:53 pm 12:53 Partly Cloudy 48 8.9 34 1.1 58 58 W 3 6 30.33 1027 10 16 0.00 0.00
1:53 pm 13:53 Partly Cloudy 49 9.4 33 0.6 55 55 NNW 6 9 30.32 1027 10 16 0.00 0.00
2:53 pm 14:53 Sunny 49 9.4 32 0 52 52 SW 3 6 30.31 1027 10 16 0.00 0.00
3:53 pm 15:53 Sunny 51 10.6 30 -1.1 44 44 NNE 3 6 30.31 1026 10 16 0.00 0.00
4:53 pm 16:53 Mostly Sunny 47 8.3 31 -0.6 54 54 Calm 30.32 1027 10 16 0.00 0.00
5:53 pm 17:53 Clear 44 6.7 33 0.6 65 65 N 10 17 30.35 1028 10 16 0.00 0.00
6:53 pm 18:53 Clear 42 5.6 33 0.6 71 71 NE 3 6 30.36 1028 10 16 0.00 0.00
7:53 pm 19:53 Clear 40 4.4 35 1.7 83 83 NNE 3 6 30.36 1028 10 16 0.00 0.00
8:53 pm 20:53 Clear 38 3.3 34 1.1 86 86 Calm 30.37 1028 10 16 0.00 0.00
9:53 pm 21:53 Clear 38 3.3 35 1.7 89 89 Calm 30.35 1028 10 16 0.00 0.00
10:53 pm 22:53 Clear 37 2.8 34 1.1 89 89 Calm 30.35 1028 10 16 0.00 0.00
11:53 pm 23:53 Clear 35 1.7 34 1.1 96 96 Calm 30.36 1028 8 13 0.00 0.00

Powered by AerisWeather